KPYX

Details ICAO KPYX
Name PERRYTON OCHILTREE CO
Region United States
Timezone America/Chicago (UTC-5.0)
Plans Departing 1
Arriving 3
Stats Elevation 2,918 ft / 889 m (AMSL)
Location 36.412181° -100.752265°
Runways 2
Magnetic Variation 5.639° E
Sunrise 2018-05-22 11:32:45 UTC / 2018-05-22 06:32:45 Local
Sunset 2018-05-23 01:49:30 UTC / 2018-05-22 20:49:30 Local
Advertisement - Login to hide

Runways

ID Width Length Bearing (true) Bearing (mag) Surface Threshold Offset Overrun Length
04 144 ft / 44 m 3,279 ft / 1,000 m 50.95° 45.31° Grass 0 ft / 0 m 0 ft / 0 m
17 75 ft / 23 m 5,713 ft / 1,741 m 179.87° 174.23° Asphalt 0 ft / 0 m 0 ft / 0 m
22 144 ft / 44 m 3,279 ft / 1,000 m 230.96° 225.32° Grass 0 ft / 0 m 0 ft / 0 m
35 75 ft / 23 m 5,713 ft / 1,741 m 359.87° 354.23° Asphalt 0 ft / 0 m 0 ft / 0 m

Map

Weather


0- 5 10 15 20 25 30 35+ Temperature / ° C

Clouds and Precipitation
Forecast for 2018-05-23 06:00 UTC. Updated an hour ago

Ground ~20,000 ft ~40,000 ft Winds

METAR

KPYX 230615Z AUTO 16011KT 10SM CLR 22/16 A3000 RMK AO2 T02170162

TAF

Not found

Frequencies

Recorded 118.17 MHz AWOS 3
Unicom 122.80 MHz CTAF/UNICOM
Warning: Do not use this data for real-world aviation or navigation. No guarantee of current accuracy is given.